TimeMST,TemperatureF,Dew PointF,Humidity,Sea Level PressureIn,VisibilityMPH,Wind Direction,Wind SpeedMPH,Gust SpeedMPH,PrecipitationIn,Events,Conditions,WindDirDegrees,DateUTC
12:15 AM,50.0,19.4,30,30.19,10.0,Calm,Calm,-,N/A,,Clear,0,2014-02-13 07:15:00
12:35 AM,50.0,19.4,30,30.19,10.0,Calm,Calm,-,N/A,,Clear,0,2014-02-13 07:35:00
12:55 AM,51.8,19.4,28,30.19,10.0,Calm,Calm,-,N/A,,Clear,0,2014-02-13 07:55:00
1:15 AM,50.0,19.4,30,30.19,10.0,Calm,Calm,-,N/A,,Clear,0,2014-02-13 08:15:00
1:35 AM,53.6,19.4,26,30.19,10.0,South,4.6,-,N/A,,Clear,180,2014-02-13 08:35:00
1:55 AM,51.8,19.4,28,30.19,10.0,South,4.6,-,N/A,,Clear,170,2014-02-13 08:55:00
2:15 AM,50.0,19.4,30,30.18,10.0,South,4.6,-,N/A,,Clear,190,2014-02-13 09:15:00
2:35 AM,51.8,19.4,28,30.18,10.0,SSW,4.6,-,N/A,,Clear,200,2014-02-13 09:35:00
2:55 AM,50.0,19.4,30,30.18,10.0,Calm,Calm,-,N/A,,Clear,0,2014-02-13 09:55:00
3:15 AM,51.8,19.4,28,30.18,10.0,South,4.6,-,N/A,,Clear,170,2014-02-13 10:15:00
3:35 AM,50.0,19.4,30,30.17,10.0,SSE,4.6,-,N/A,,Clear,150,2014-02-13 10:35:00
3:55 AM,48.2,19.4,32,30.17,10.0,SE,6.9,-,N/A,,Clear,140,2014-02-13 10:55:00
4:15 AM,48.2,19.4,32,30.17,10.0,Calm,Calm,-,N/A,,Clear,0,2014-02-13 11:15:00
4:35 AM,46.4,19.4,34,30.17,10.0,Calm,Calm,-,N/A,,Clear,0,2014-02-13 11:35:00
4:55 AM,44.6,19.4,37,30.17,10.0,Calm,Calm,-,N/A,,Clear,0,2014-02-13 11:55:00
5:15 AM,46.4,21.2,37,30.18,10.0,Calm,Calm,-,N/A,,Clear,0,2014-02-13 12:15:00
5:35 AM,46.4,21.2,37,30.18,10.0,Calm,Calm,-,N/A,,Clear,0,2014-02-13 12:35:00
5:55 AM,46.4,21.2,37,30.18,10.0,Calm,Calm,-,N/A,,Clear,0,2014-02-13 12:55:00
6:15 AM,46.4,21.2,37,30.18,10.0,Calm,Calm,-,N/A,,Clear,0,2014-02-13 13:15:00
6:35 AM,48.2,21.2,34,30.19,10.0,Calm,Calm,-,N/A,,Clear,0,2014-02-13 13:35:00
6:55 AM,50.0,21.2,32,30.20,10.0,Calm,Calm,-,N/A,,Clear,0,2014-02-13 13:55:00
7:15 AM,48.2,21.2,34,30.20,10.0,Calm,Calm,-,N/A,,Clear,0,2014-02-13 14:15:00
7:35 AM,48.2,21.2,34,30.20,10.0,NE,3.5,-,N/A,,Clear,40,2014-02-13 14:35:00
7:55 AM,50.0,21.2,32,30.21,10.0,NW,4.6,-,N/A,,Clear,320,2014-02-13 14:55:00
8:15 AM,51.8,23.0,33,30.21,10.0,NNW,4.6,-,N/A,,Clear,330,2014-02-13 15:15:00
8:35 AM,55.4,23.0,29,30.22,10.0,NNW,5.8,-,N/A,,Clear,330,2014-02-13 15:35:00
8:55 AM,57.2,24.8,29,30.23,10.0,Calm,Calm,-,N/A,,Clear,0,2014-02-13 15:55:00
9:15 AM,60.8,26.6,27,30.23,10.0,Calm,Calm,-,N/A,,Clear,0,2014-02-13 16:15:00
9:55 AM,62.6,24.8,24,30.24,10.0,Variable,5.8,-,N/A,,Clear,0,2014-02-13 16:55:00
10:15 AM,64.4,24.8,22,30.24,10.0,WSW,6.9,-,N/A,,Clear,250,2014-02-13 17:15:00
10:35 AM,66.2,23.0,19,30.24,10.0,Variable,6.9,-,N/A,,Clear,0,2014-02-13 17:35:00
10:55 AM,68.0,24.8,20,30.23,10.0,West,6.9,-,N/A,,Clear,260,2014-02-13 17:55:00
11:15 AM,68.0,24.8,20,30.23,10.0,West,8.1,-,N/A,,Clear,270,2014-02-13 18:15:00
11:35 AM,68.0,24.8,20,30.22,10.0,West,8.1,-,N/A,,Clear,270,2014-02-13 18:35:00
11:55 AM,68.0,24.8,20,30.21,10.0,WSW,10.4,-,N/A,,Clear,240,2014-02-13 18:55:00
12:35 PM,69.8,24.8,18,30.18,10.0,West,12.7,-,N/A,,Clear,270,2014-02-13 19:35:00
12:55 PM,69.8,24.8,18,30.17,10.0,West,10.4,-,N/A,,Clear,260,2014-02-13 19:55:00
1:15 PM,69.8,23.0,17,30.16,10.0,WSW,11.5,17.3,N/A,,Clear,250,2014-02-13 20:15:00
1:35 PM,69.8,23.0,17,30.15,10.0,WSW,12.7,-,N/A,,Clear,250,2014-02-13 20:35:00
1:55 PM,69.8,23.0,17,30.14,10.0,SW,9.2,17.3,N/A,,Clear,220,2014-02-13 20:55:00
2:15 PM,71.6,21.2,15,30.13,10.0,WSW,9.2,23.0,N/A,,Clear,240,2014-02-13 21:15:00
2:35 PM,71.6,21.2,15,30.12,10.0,WSW,11.5,18.4,N/A,,Clear,250,2014-02-13 21:35:00
2:55 PM,71.6,21.2,15,30.12,10.0,WSW,12.7,19.6,N/A,,Clear,240,2014-02-13 21:55:00
3:15 PM,71.6,23.0,16,30.12,10.0,WSW,11.5,-,N/A,,Clear,240,2014-02-13 22:15:00
3:35 PM,69.8,23.0,17,30.12,10.0,West,9.2,15.0,N/A,,Clear,260,2014-02-13 22:35:00
3:55 PM,69.8,24.8,18,30.13,10.0,WSW,10.4,17.3,N/A,,Clear,250,2014-02-13 22:55:00
4:15 PM,69.8,24.8,18,30.12,10.0,Variable,6.9,15.0,N/A,,Clear,0,2014-02-13 23:15:00
4:35 PM,69.8,24.8,18,30.12,10.0,West,8.1,18.4,N/A,,Clear,260,2014-02-13 23:35:00
4:55 PM,69.8,24.8,18,30.13,10.0,Variable,6.9,12.7,N/A,,Clear,0,2014-02-13 23:55:00
5:15 PM,68.0,24.8,20,30.12,10.0,West,6.9,-,N/A,,Clear,260,2014-02-14 00:15:00
5:35 PM,66.2,24.8,21,30.12,10.0,West,4.6,-,N/A,,Clear,270,2014-02-14 00:35:00
5:55 PM,64.4,24.8,22,30.13,10.0,West,5.8,-,N/A,,Clear,280,2014-02-14 00:55:00
6:15 PM,62.6,24.8,24,30.13,10.0,WNW,6.9,-,N/A,,Clear,300,2014-02-14 01:15:00
6:35 PM,60.8,24.8,25,30.13,10.0,WNW,8.1,-,N/A,,Clear,290,2014-02-14 01:35:00
7:15 PM,60.8,24.8,25,30.14,10.0,WNW,6.9,-,N/A,,Clear,290,2014-02-14 02:15:00
7:35 PM,59.0,24.8,27,30.15,10.0,NW,5.8,-,N/A,,Clear,320,2014-02-14 02:35:00
7:55 PM,57.2,24.8,29,30.15,10.0,East,4.6,-,N/A,,Clear,80,2014-02-14 02:55:00
8:15 PM,59.0,24.8,27,30.15,10.0,Calm,Calm,-,N/A,,Clear,0,2014-02-14 03:15:00
8:35 PM,57.2,24.8,29,30.15,10.0,Calm,Calm,-,N/A,,Clear,0,2014-02-14 03:35:00
8:55 PM,55.4,24.8,31,30.14,10.0,SSE,3.5,-,N/A,,Clear,160,2014-02-14 03:55:00
9:15 PM,55.4,24.8,31,30.14,10.0,South,3.5,-,N/A,,Clear,180,2014-02-14 04:15:00
9:35 PM,53.6,24.8,33,30.15,10.0,Calm,Calm,-,N/A,,Clear,0,2014-02-14 04:35:00
9:55 PM,51.8,24.8,35,30.17,10.0,Calm,Calm,-,N/A,,Clear,0,2014-02-14 04:55:00
10:15 PM,50.0,24.8,37,30.18,10.0,Calm,Calm,-,N/A,,Clear,0,2014-02-14 05:15:00
10:35 PM,50.0,24.8,37,30.19,10.0,NNW,4.6,-,N/A,,Clear,340,2014-02-14 05:35:00
11:15 PM,50.0,24.8,37,30.18,10.0,Calm,Calm,-,N/A,,Clear,0,2014-02-14 06:15:00
11:35 PM,51.8,26.6,38,30.18,10.0,Calm,Calm,-,N/A,,Clear,0,2014-02-14 06:35:00
11:55 PM,50.0,24.8,37,30.18,10.0,Calm,Calm,-,N/A,,Clear,0,2014-02-14 06:55:00